Location: Cargill Incorporated Elevator
(42.7294°N, 93.7333°W)
Time: 04:17:17
(UTC+00:00)

BREEZE M DEB (TANK) - Pass Details

Date: 19 January 2026
Orbit: 287 x 11207 km, 49.5° (Epoch: 14 February)

Event Time Altitude Azimuth Distance (km) Brightness Sun altitude
Exits shadow 12:48:33 13° 286° (WNW) 1,638 4.0 -9.6°
Maximum altitude 12:51:43 52° 210° (SSW) 1,064 3.7 -9.0°
Drops below altitude 10° 13:01:49 10° 137° (SE) 4,971 8.3 -7.3°
Sets 13:08:52 0° 135° (SE) 7,645 9.6 -6.1°
